Weather History for Homer, AK

Change the Weather History Date:

Monday, September 9, 2013

  Actual Average Record
Temperature  
Mean Temperature 58 °F -  
Max Temperature 63 °F 55 °F 63 °F (1956)
Min Temperature 53 °F 41 °F 27 °F (1970)
Degree Days  
Heating Degree Days 8    
Growing Degree Days 8 (Base 50)    
Moisture  
Dew Point 47 °F    
Average Humidity 70    
Maximum Humidity 81    
Minimum Humidity 55    
Precipitation  
Precipitation 0.19 in - - ()
Sea Level Pressure  
Sea Level Pressure 29.64 in    
Wind  
Wind Speed 7 mph (East)    
Max Wind Speed 20 mph    
Max Gust Speed 30 mph    
Visibility 9 miles    
Events Rain    
Averages and records for this station are not official NWS values.
T = Trace of Precipitation, MM = Missing Value Source: NWS Daily Summary

Daily Weather History Graph

Daily Weather History Graph

Search for Another Location

Airport:

Trip Planner

Search our weather history database for the weather conditions in past years. The results will help you decide how hot, cold, wet, or windy it might be!

Date:

Astronomy

Sep. 09, 2013 Rise Set
Actual Time 7:21 AM AKDT 8:43 PM AKDT
Civil Twilight 6:38 AM AKDT 9:25 PM AKDT
Nautical Twilight 5:45 AM AKDT 10:18 PM AKDT
Astronomical Twilight 4:42 AM AKDT 11:20 PM AKDT
Moon 1:13 PM AKDT (9/9) 9:44 PM AKDT (9/9)
Length of Visible Light 14h 46m
Length of Day
13h 21m
Waxing Crescent, 20% of the Moon is Illuminated
Sep 9
Waxing Crescent
Sep 12
First Quarter
Sep 19
Full
Sep 26
Last Quarter
Oct 4
New

Hourly Weather History & Observations

Time (AKDT) Temp. Dew Point Humidity Pressure Visibility Wind Dir Wind Speed Gust Speed Precip Events Conditions
12:53 AM 55.9 °F 44.1 °F 64% 29.77 in 10.0 mi East 5.8 mph - 0.00 in Rain Light Rain
1:53 AM 53.1 °F 45.0 °F 74% 29.75 in 9.0 mi Variable 5.8 mph - 0.00 in Rain Light Rain
2:53 AM 55.9 °F 42.1 °F 60% 29.74 in 10.0 mi ESE 9.2 mph 23.0 mph 0.01 in   Overcast
3:53 AM 55.0 °F 43.0 °F 64% 29.72 in 10.0 mi East 5.8 mph - N/A   Overcast
4:53 AM 53.1 °F 45.0 °F 74% 29.70 in 10.0 mi ESE 4.6 mph - 0.01 in   Overcast
5:53 AM 55.0 °F 42.1 °F 62% 29.68 in 10.0 mi East 8.1 mph - N/A   Overcast
6:53 AM 55.9 °F 43.0 °F 62% 29.63 in 10.0 mi ENE 15.0 mph 24.2 mph N/A   Overcast
7:53 AM 57.0 °F 41.0 °F 55% 29.61 in 10.0 mi East 19.6 mph 29.9 mph N/A   Overcast
8:53 AM 57.9 °F 43.0 °F 58% 29.61 in 10.0 mi East 17.3 mph 23.0 mph N/A   Overcast
9:53 AM 57.9 °F 44.1 °F 60% 29.60 in 10.0 mi East 15.0 mph - 0.00 in Rain Light Rain
10:53 AM 57.0 °F 46.9 °F 69% 29.59 in 10.0 mi East 8.1 mph - 0.03 in Rain Light Rain
11:53 AM 57.9 °F 48.9 °F 72% 29.58 in 10.0 mi ENE 9.2 mph - 0.02 in   Overcast
12:53 PM 62.1 °F 48.9 °F 62% 29.58 in 10.0 mi East 5.8 mph - N/A   Mostly Cloudy
1:53 PM 59.0 °F 50.0 °F 72% 29.58 in 7.0 mi ENE 5.8 mph - 0.03 in Rain Light Rain
2:53 PM 59.0 °F 51.1 °F 75% 29.58 in 5.0 mi ENE 6.9 mph - 0.02 in Rain Heavy Rain
3:53 PM 57.9 °F 51.1 °F 78% 29.58 in 9.0 mi ENE 5.8 mph - 0.02 in   Overcast
4:53 PM 57.0 °F 51.1 °F 81% 29.59 in 3.0 mi East 3.5 mph - 0.03 in Rain Rain
5:53 PM 59.0 °F 53.1 °F 81% 29.60 in 10.0 mi Calm Calm - 0.02 in Rain Light Rain
6:53 PM 59.0 °F 51.1 °F 75% 29.60 in 10.0 mi Calm Calm - 0.00 in   Overcast
7:53 PM 57.9 °F 52.0 °F 81% 29.61 in 10.0 mi Calm Calm - N/A   Overcast
8:53 PM 57.9 °F 48.0 °F 70% 29.62 in 10.0 mi Calm Calm - N/A   Overcast
9:53 PM 55.9 °F 50.0 °F 80% 29.63 in 10.0 mi Calm Calm - N/A   Overcast
10:53 PM 57.9 °F 48.9 °F 72% 29.65 in 10.0 mi Calm Calm - N/A   Overcast
11:53 PM 55.9 °F 50.0 °F 80% 29.65 in 10.0 mi WNW 3.5 mph - N/A   Overcast